Simultaneous Nadir Overpasses (SNOs) Predictions

Prediction of SNOs between AQUA and NPP Satellite Orbit:

Table of predicted SNOs for the next 14.0 days since TLE Epoch: 1/29/2016
Index Date (AQUA) Time (AQUA) Lat,Lon (AQUA) SZA (AQUA ) Date (NPP) Time (NPP) Lat,Lon (NPP) SZA (NPP ) Distance(km) Time Diff (sec)
1 01/30/2016 12:34:25 -48.76, 24.73 39.31 01/30/2016 12:33:13 -48.96, 23.46 38.68 95.43 72
2 01/30/2016 13:16:12 74.77,-143.29 116.54 01/30/2016 13:16:06 74.77,-143.30 116.55 0.41 6
3 01/30/2016 14:05:17 -75.89, 27.46 64.71 01/30/2016 14:06:28 -75.89, 27.37 64.75 2.50 71
4 02/02/2016 04:43:32 -73.86, 162.78 63.18 02/02/2016 04:42:32 -73.86, 162.81 63.13 1.03 60
5 02/02/2016 05:32:28 75.36, -25.85 115.19 02/02/2016 05:32:45 75.36, -25.82 115.17 0.99 17
6 02/04/2016 20:59:57 -74.03, -80.94 64.11 02/04/2016 20:59:21 -74.02, -81.01 64.06 2.16 36
7 02/04/2016 21:48:53 75.52, 90.50 114.26 02/04/2016 21:49:34 75.52, 90.43 114.24 2.16 41
8 02/07/2016 13:16:07 -74.95, 37.20 65.89 02/07/2016 13:15:54 -74.96, 37.24 65.90 1.40 13
9 02/07/2016 14:05:07 76.22,-151.51 112.68 02/07/2016 14:06:11 76.22,-151.46 112.61 1.69 64
10 02/10/2016 04:43:26 74.00, -16.88 114.34 02/10/2016 04:42:20 74.00, -16.82 114.38 2.19 66
11 02/10/2016 05:32:27 -75.35, 154.14 67.15 02/10/2016 05:32:38 -75.35, 154.16 67.17 0.62 11




NCC Satellite Simultaneous Nadir Overpasses (SNOs) Prediction Service
